Regional Weather Roundup
Issued by NWS Upton, NY

Current Version | Previous Version | Graphics & Text | Print | Product List | Glossary Off
Versions: 1 2 3 4 5 6 7 8 9 10 11 12 13 14 15 16 17 18 19 20 21 22 23 24 25 26 27 28

000
ASUS41 KOKX 061104
RWROKX

REGIONAL WEATHER ROUNDUP
NATIONAL WEATHER SERVICE NEW YORK NY
700 AM EDT FRI MAY 06 2016

NOTE: "FAIR" INDICATES FEW OR NO CLOUDS BELOW 12,000 FEET WITH NO
SIGNIFICANT WEATHER AND/OR OBSTRUCTIONS TO VISIBILITY.

NYZ071-072-176-178-NJZ106-104-061200-
NEW YORK CITY METRO AREA


CITY           SKY/WX    TMP DP  RH WIND       PRES   REMARKS
CENTRAL PARK   LGT RAIN  48  45  89 NE7       29.71S FOG
LAGUARDIA APRT LGT RAIN  50  49  96 NE15      29.69R
KENNEDY INTL   LGT RAIN  48  46  93 NE13      29.69S FOG
NEWARK/LIBERTY RAIN      49  47  93 NE12      29.68S FOG
BRNX BOT. GARD   N/A     46  45  93 NE5       29.70R
TETERBORO      RAIN      49  45  86 N6        29.68F FOG
$$

NYZ177-179-078>081-061200-
LONG ISLAND NEW YORK

CITY           SKY/WX    TMP DP  RH WIND       PRES   REMARKS
FARMINGDALE    RAIN      47  45  93 NE10G18   29.69R FOG
ISLIP          DRIZZLE   47  44  90 NE10      29.69S FOG
SHIRLEY        LGT RAIN  47  45  93 NE6       29.71R
RIVERHEAD        N/A     46  45  93 NE3       29.71R
WESTHAMPTON    NOT AVBL
EAST HAMPTON   CLOUDY    47  42  85 NE10G18   29.70R
MONTAUK POINT  NOT AVBL
$$

NYZ052-065-067-061200-
HUDSON VALLEY

CITY           SKY/WX    TMP DP  RH WIND       PRES   REMARKS
WHITE PLAINS   RAIN      47  45  93 NE7       29.69R FOG
NEWBURGH       NOT AVBL
MONTGOMERY     LGT RAIN  50  47  89 CALM      29.70R FOG
POUGHKEEPSIE   CLOUDY    51  47  86 E3        29.71R
ALBANY         PTSUNNY   52  41  66 N10       29.76R
$$

NJZ001-105-106-008-010-013-015-019>022-104-061200-
NEW JERSEY

CITY           SKY/WX    TMP DP  RH WIND       PRES   REMARKS
NEWARK/LIBERTY RAIN      49  47  93 NE12      29.68S FOG
TETERBORO      RAIN      49  45  86 N6        29.68F FOG
CALDWELL       RAIN      49  47  93 NE6       29.69S FOG
MORRISTOWN     LGT RAIN  48  48 100 NE6       29.70S FOG
SOMERVILLE     LGT RAIN  50  47  89 N5        29.66S
SUSSEX         RAIN      50  45  83 NE5       29.71R
ANDOVER          N/A     49  47  93 CALM      29.69R
TRENTON        LGT RAIN  49  46  90 NE8       29.66S
MILLVILLE      LGT RAIN  49  46  90 N7        29.65R
ATLANTIC CITY  RAIN      47  46  97 N9G17     29.62S FOG
WRIGHTSTOWN    LGT RAIN  48  46  93 NE13      29.63R
TOMS RIVER     CLOUDY    46  43  87 NE16G22   29.64F
BELMAR         LGT RAIN  47  46  97 NE18      29.66S FOG
$$

PAZ047>061-062-071-061200-
EASTERN PENNSYLVANIA

CITY           SKY/WX    TMP DP  RH WIND       PRES   REMARKS
PHILADELPHIA   LGT RAIN  51  46  83 NE15G22   29.66R
ALLENTOWN      RAIN      51  48  89 E5        29.69R FOG
SCRANTON       CLOUDY    52  44  74 NE10      29.69S
$$

CTZ002-004>006-009-010-012-RIZ004-006-007-MAZ004-011-015-061200-
SOUTHERN NEW ENGLAND
 IN CT

CITY           SKY/WX    TMP DP  RH WIND       PRES   REMARKS
BRADLEY INTL   LGT RAIN  50  43  77 NE6       29.73R
HARTFORD       CLOUDY    50  44  80 N6        29.74R
DANBURY        RAIN      47  44  90 E7        29.72R FOG
WTRBRY/OXFORD  LGT RAIN  46  43  87 E9G17     29.72R FOG
BRIDGEPORT     RAIN      49  45  86 NE12      29.71R FOG
MERIDEN        RAIN      49  44  83 N7        29.72R
NEW HAVEN      CLOUDY    47  45  93 NE6       29.71R
CHESTER        LGT RAIN  46  45  93 NE10G17   29.72R
GROTON         CLOUDY    48  44  86 NE13      29.73R
WILLIMANTIC    CLOUDY    50  42  74 N7        29.74R

 IN RI

CITY           SKY/WX    TMP DP  RH WIND       PRES   REMARKS
PROVIDENCE     CLOUDY    48  43  82 N14       29.75R
BLOCK ISLAND   CLOUDY    47  43  86 NE13G20   29.74R
WESTERLY       CLOUDY    48  42  80 NE10      29.74R

 IN MA

CITY           SKY/WX    TMP DP  RH WIND       PRES   REMARKS
BOSTON         CLOUDY    48  43  82 N12       29.76R
WORCESTER      CLOUDY    46  41  82 NE10G16   29.73R
WESTFIELD      CLOUDY    50  43  77 E3        29.74R
PROVINCETOWN   CLOUDY    46  44  93 N10       29.76R FOG
NANTUCKET      CLOUDY    47  44  90 N18       29.73R
$$

ANZ330-335-338-340-345-350-353-355-061200-
COASTAL MARINE OBSERVATIONS


STATION/POSITION TIME  SKY/WX   TEMP    WIND        PRES    VSBY  WAVE
                                AIR SEA DIR/SP/G                  HT/PER
                 (UTC)          (F)     (DEG/KT/KT) (MB)    (MI)  (FT/S)
NY HARB ENTRANCE 0950            48 50   40/ 16/ 17 1003.9          4/ 7
20S FIRE ISLAND  0950            47 48   50/ 16/ 19 1003.8          6/ 8
GREAT SOUTH BAY  1000            47 53   30/ 12/ 16   N/A
23 SSW MONTAUK P 0950            47 46   50/ 19/ 23 1004.1          5/ 6
15 E BARNEGAT LI 1022               49                N/A           7/ 8
HUDSON CANYON    0950            47 51              1002.2          7/ 8
KINGS POINT      1000            48 53              1005.1
EXECUTION ROCKS  NOT AVBL
CENTRAL LI SOUND NOT AVBL
EASTERN LI SOUND 1000            48 47   30/ 12/ 16   N/A
ROBBINS REEF     1018            50      50/ 12/ 17 1004.1
$$


>>>>>>>>>>>>>>>>>>>>>>>>>>>> KEY <<<<<<<<<<<<<<<<<<<<<<<<<<<
>                                                          <
>     SKY/WX - SKY CONDITION/PRESENT WEATHER               <
>     TMP    - TEMPERATURE IN FAHRENHEIT                   <
>     DP     - DEWPOINT IN FAHRENHEIT                      <
>     RH     - RELATIVE HUMIDITY IN PERCENT                <
>     WIND   - DIRECTION AND SPEED IN MPH                  <
>     PRES   - MEAN SEA LEVEL PRESSURE IN INCHES OF HG     <
>     WCI    - WIND CHILL INDEX                            <
>     VSB    - VISIBILITY IN MILES                         <
>     HX     - HEAT INDEX                                  <
>     TC     - TEMPERATURE IN CELSIUS                      <
>     VRB    - VARIABLE WIND DIRECTION                     <
>                                                          <
>>>>>>>>>>>>>>>>>>>>>>>>>>>> KEY <<<<<<<<<<<<<<<<<<<<<<<<<<<






USA.gov is the U.S. government's official web portal to all federal, state and local government web resources and services.